Location: Bluff Heights
(33.7692°N, 118.1592°W)
Time: 18:40:13
(UTC+00:00)

Vanguard 1 Rocket - Pass Details

Date: 28 September 2021
Orbit: 650 x 4226 km, 34.3° (Epoch: 22 October)

Event Time Altitude Azimuth Distance (km) Brightness Sun altitude
Exits shadow 10:02:33 26° 159° (SSE) 4,340 10.6 -44.7°
Drops below altitude 10° 10:10:27 10° 144° (SE) 6,279 11.6 -43.3°
Sets 10:16:53 0° 138° (SE) 7,793 12.2 -42.2°
